Weather Roundup
Issued by NWS Chicago, IL

Home | Current Version | Previous Version | Graphics & Text | Print | Product List | Glossary On
Versions: 1 2 3 4 5 6 7 8 9 10 11 12 13 14 15 16 17 18 19 20 21 22 23 24 25 26 27 28 29 30 31 32 33 34 35 36 37 38 39 40 41 42 43 44 45 46 47 48 49 50
776
NZUS59 KLOT 140708
HRRLOT

CHICAGO AREA WEATHER ROUNDUP
NATIONAL WEATHER SERVICE CHICAGO/ROMEOVILLE IL
100 AM CST SUN FEB 14 2016

NOTE: "FAIR" INDICATES FEW OR NO CLOUDS BELOW 12,000 FEET WITH NO
SIGNIFICANT WEATHER AND/OR OBSTRUCTIONS TO VISIBILITY.

* THESE STATIONS ARE NOT UNDER NWS QUALITY CONTROL. THEY ALSO MAY NOT
  REPORT WEATHER SUCH AS PRECIPITATION OR FOG.

ILZ005-006-012>014-019>023-140800-
NORTHEAST ILLINOIS

CITY           SKY/WX    TMP DP  RH WIND       PRES   REMARKS
OHARE          CLOUDY    10  -2  58 CALM      30.44F
MIDWAY         CLOUDY    14  -1  51 S8        30.46S WCI   3
AURORA         CLOUDY    13   2  61 E7        30.43F WCI   3
LANSING*       CLOUDY    11   1  64 SE6       30.47S WCI   2
WAUKEGAN       PTCLDY     2  -2  83 N3        30.44F
DUPAGE AIRPORT CLOUDY    10  -1  61 E7        30.42F WCI  -1
WHEELING       PTCLDY     8  -1  66 CALM      30.46F
KANKAKEE*      CLOUDY    14   5  68 E9        30.46S WCI   2
MORRIS*        CLOUDY    15   4  61 CALM      30.41F
LEWIS AIRPORT* CLOUDY    13   2  63 E7        30.44F WCI   2
$$

WIZ051-052-058>065-066-070>072-140800-
SOUTHEAST WISCONSIN

CITY           SKY/WX    TMP DP  RH WIND       PRES   REMARKS
MILWAUKEE      PTCLDY     5  -6  60 CALM      30.45F
KENOSHA*       PTCLDY     2  -3  80 NE3       30.44F
RACINE*        CLEAR      4  -6  63 CALM      30.46F
BURLINGTON     CLOUDY    -1  -5  85 CALM      30.43F
WAUKESHA       CLOUDY     0  -6  78 CALM      30.44F
$$

INZ001>003-010>013-019-020-140800-
NORTHWEST INDIANA

CITY           SKY/WX    TMP DP  RH WIND       PRES   REMARKS
GARY*          PTCLDY    13   0  57 SE5       30.47S WCI   5
MICHIGAN CITY* NOT AVBL
RENSSELAER*    NOT AVBL
VALPARAISO     CLOUDY     9   1  70 S5        30.47S WCI   1
$$

LMZ740>746-140800-
SOUTHERN LAKE MICHIGAN

STATION/POSITION TIME  SKY/WX   TEMP WIND        PRES    VSBY
                                AIR  DIR/SP/G
                 (UTC)          (F)  (DEG/KT/KT) (MB)    (MI)
HARRISON CRIB    0600            16  170/  5/  7   N/A
BURNHAM HARBOR   0700            13  180/  5       N/A
CALUMET HARBOR   0600            13  150/  4/  6 1030.8F
BURNS HARBOR     0600            11  170/  6/  7 1032.2F
MICHIGAN CITY    0600             9  130/  7/  9   N/A
$$

ABBREVIATIONS USED IN REMARKS
   TC - TEMPERATURE IN CELSIUS
  WCI - WIND CHILL INDEX
   HX - HEAT INDEX
  VSB - VISIBILITY
$$




USA.gov is the U.S. government's official web portal to all federal, state and local government web resources and services.